TimeCEST,TemperatureF,Dew PointF,Humidity,Sea Level PressureIn,VisibilityMPH,Wind Direction,Wind SpeedMPH,Gust SpeedMPH,PrecipitationIn,Events,Conditions,WindDirDegrees,DateUTC
12:20 AM,73.4,66.2,78,29.98,6.2,South,3.5,-,N/A,,Scattered Clouds,190,2013-08-08 22:20:00
12:50 AM,73.4,66.2,78,29.98,6.2,WSW,5.8,-,N/A,,Partly Cloudy,240,2013-08-08 22:50:00
1:20 AM,73.4,64.4,73,29.98,-9999.0,SW,8.1,-,N/A,,Clear,230,2013-08-08 23:20:00
1:50 AM,71.6,64.4,78,29.98,-9999.0,SW,5.8,-,N/A,,Clear,230,2013-08-08 23:50:00
2:20 AM,71.6,64.4,78,29.98,-9999.0,SW,5.8,-,N/A,,Clear,230,2013-08-09 00:20:00
2:50 AM,69.8,64.4,83,29.98,-9999.0,WSW,5.8,-,N/A,,Clear,250,2013-08-09 00:50:00
3:20 AM,69.8,64.4,83,29.95,-9999.0,WSW,3.5,-,N/A,,Clear,240,2013-08-09 01:20:00
3:50 AM,71.6,62.6,73,29.95,-9999.0,SW,3.5,-,N/A,,Clear,230,2013-08-09 01:50:00
4:20 AM,69.8,64.4,83,29.95,-9999.0,West,3.5,-,N/A,,Clear,280,2013-08-09 02:20:00
4:50 AM,69.8,60.8,73,29.95,-9999.0,West,9.2,-,N/A,,Clear,280,2013-08-09 02:50:00
5:20 AM,69.8,60.8,73,29.95,-9999.0,WNW,8.1,-,N/A,,Clear,290,2013-08-09 03:20:00
5:50 AM,69.8,60.8,73,29.98,-9999.0,West,11.5,-,N/A,,Clear,270,2013-08-09 03:50:00
6:20 AM,69.8,60.8,73,29.95,-9999.0,West,9.2,-,N/A,,Clear,280,2013-08-09 04:20:00
6:50 AM,69.8,60.8,73,29.95,-9999.0,West,8.1,-,N/A,,Clear,260,2013-08-09 04:50:00
7:20 AM,69.8,60.8,73,29.95,-9999.0,WSW,9.2,-,N/A,,Clear,250,2013-08-09 05:20:00
7:50 AM,71.6,60.8,69,29.95,-9999.0,West,9.2,-,N/A,,Clear,260,2013-08-09 05:50:00
8:20 AM,73.4,60.8,65,29.98,-9999.0,West,10.4,-,N/A,,Clear,270,2013-08-09 06:20:00
8:50 AM,75.2,60.8,61,29.98,-9999.0,West,11.5,-,N/A,,Clear,270,2013-08-09 06:50:00
9:20 AM,77.0,59.0,54,29.95,-9999.0,WNW,13.8,-,N/A,,Clear,290,2013-08-09 07:20:00
9:50 AM,77.0,60.8,57,29.95,-9999.0,WNW,13.8,-,N/A,,Clear,290,2013-08-09 07:50:00
10:20 AM,77.0,60.8,57,29.95,6.2,WNW,12.7,-,N/A,,Partly Cloudy,300,2013-08-09 08:20:00
10:50 AM,77.0,62.6,61,29.95,6.2,NW,10.4,-,N/A,,Partly Cloudy,310,2013-08-09 08:50:00
11:20 AM,78.8,60.8,54,29.95,6.2,West,12.7,-,N/A,,Partly Cloudy,280,2013-08-09 09:20:00
11:50 AM,80.6,59.0,48,29.95,-9999.0,WNW,15.0,-,N/A,,Clear,300,2013-08-09 09:50:00
12:20 PM,82.4,59.0,45,29.95,-9999.0,WNW,13.8,-,N/A,,Clear,290,2013-08-09 10:20:00
12:50 PM,82.4,59.0,45,29.92,-9999.0,NW,10.4,-,N/A,,Clear,310,2013-08-09 10:50:00
1:20 PM,84.2,59.0,42,29.92,-9999.0,NW,10.4,-,N/A,,Clear,310,2013-08-09 11:20:00
1:50 PM,86.0,57.2,37,29.92,-9999.0,NW,9.2,-,N/A,,Clear,310,2013-08-09 11:50:00
2:20 PM,86.0,59.0,40,29.89,-9999.0,Variable,6.9,-,N/A,,Clear,0,2013-08-09 12:20:00
2:50 PM,87.8,57.2,35,29.89,-9999.0,WNW,8.1,-,N/A,,Clear,300,2013-08-09 12:50:00
3:20 PM,87.8,53.6,31,29.89,-9999.0,WNW,8.1,-,N/A,,Clear,300,2013-08-09 13:20:00
3:50 PM,89.6,57.2,33,29.86,-9999.0,NNW,6.9,-,N/A,,Clear,330,2013-08-09 13:50:00
4:20 PM,89.6,55.4,31,29.86,-9999.0,NW,5.8,-,N/A,,Clear,310,2013-08-09 14:20:00
4:50 PM,87.8,55.4,33,29.86,-9999.0,NW,6.9,-,N/A,,Clear,310,2013-08-09 14:50:00
5:20 PM,87.8,55.4,33,29.86,-9999.0,NW,6.9,-,N/A,,Clear,320,2013-08-09 15:20:00
5:50 PM,89.6,55.4,31,29.83,-9999.0,North,4.6,-,N/A,,Clear,350,2013-08-09 15:50:00
6:20 PM,89.6,55.4,31,29.86,-9999.0,North,3.5,-,N/A,,Clear,350,2013-08-09 16:20:00
6:50 PM,87.8,55.4,33,29.86,-9999.0,NNE,3.5,-,N/A,,Clear,30,2013-08-09 16:50:00
7:20 PM,89.6,55.4,31,29.86,6.2,ENE,3.5,-,N/A,,Partly Cloudy,70,2013-08-09 17:20:00
7:50 PM,84.2,60.8,45,29.83,6.2,SE,9.2,-,N/A,,Partly Cloudy,140,2013-08-09 17:50:00
8:20 PM,82.4,60.8,48,29.83,6.2,ESE,3.5,-,N/A,,Partly Cloudy,120,2013-08-09 18:20:00
8:50 PM,82.4,59.0,45,29.83,6.2,WSW,6.9,-,N/A,,Partly Cloudy,240,2013-08-09 18:50:00
9:20 PM,80.6,62.6,54,29.83,6.2,SW,4.6,-,N/A,,Partly Cloudy,220,2013-08-09 19:20:00
9:50 PM,78.8,62.6,57,29.86,-9999.0,WSW,5.8,-,N/A,,Clear,240,2013-08-09 19:50:00
10:20 PM,78.8,62.6,57,29.86,-9999.0,SW,5.8,-,N/A,,Clear,220,2013-08-09 20:20:00
10:50 PM,77.0,62.6,61,29.86,-9999.0,WNW,5.8,-,N/A,,Clear,290,2013-08-09 20:50:00
11:20 PM,78.8,62.6,57,29.86,-9999.0,WSW,5.8,-,N/A,,Clear,250,2013-08-09 21:20:00
11:50 PM,78.8,60.8,54,29.86,-9999.0,West,6.9,-,N/A,,Clear,270,2013-08-09 21:50:00